When you browse on this site, cookies collect data to enhance your experience and personalize the content and advertising you see.
Visit our Privacy Policy to learn more. By continuing to use the site, you agree to this use of cookies and data.
  • In Hungary
  • List of Countries
  • For 7 days
  • Water Temperature
  • Weather Map
  • News
  • Weather Widgets
  • user-avatar
    Login

    Hourly Weather Pogorelka

    Today, 17 September, Tuesday

    Time Temperature Precipitation Wind Pressure Humidity
    00:00 +8°C° 0 mm 5 mps 729 mmHg 90%
    01:00 +8°C° 0 mm 5 mps 729 mmHg 88%
    02:00 +8°C° 0 mm 5 mps 729 mmHg 87%
    03:00 +8°C° 0.2 mm 5 mps 729 mmHg 88%
    04:00 +7°C° 0.2 mm 5 mps 729 mmHg 89%
    05:00 +7°C° 0.2 mm 4 mps 730 mmHg 90%
    06:00 +7°C° 0.2 mm 4 mps 730 mmHg 89%
    07:00 +7°C° 0.2 mm 4 mps 730 mmHg 88%
    08:00 +8°C° 0.2 mm 4 mps 730 mmHg 87%
    09:00 +8°C° 0.2 mm 4 mps 730 mmHg 84%
    10:00 +10°C° 0.2 mm 4 mps 731 mmHg 80%
    11:00 +11°C° 0.2 mm 4 mps 731 mmHg 77%
    12:00 +11°C° 0.3 mm 4 mps 731 mmHg 76%
    13:00 +11°C° 0.3 mm 4 mps 731 mmHg 74%
    14:00 +11°C° 0.3 mm 4 mps 731 mmHg 73%
    15:00 +10°C° 0.1 mm 4 mps 731 mmHg 76%
    16:00 +10°C° 0.1 mm 4 mps 731 mmHg 78%
    17:00 +9°C° 0.1 mm 3 mps 731 mmHg 81%
    18:00 +9°C° 0.1 mm 3 mps 731 mmHg 85%
    19:00 +8°C° 0.1 mm 3 mps 732 mmHg 88%
    20:00 +7°C° 0.1 mm 3 mps 732 mmHg 92%
    21:00 +7°C° 0.1 mm 3 mps 732 mmHg 92%
    22:00 +7°C° 0.1 mm 3 mps 732 mmHg 93%
    23:00 +7°C° 0.1 mm 3 mps 732 mmHg 94%

    Tomorrow, 18 September, Wednesday

    Time Temperature Precipitation Wind Pressure Humidity
    00:00 +5°C° 0.1 mm 3 mps 732 mmHg 94%
    01:00 +5°C° 0.1 mm 3 mps 732 mmHg 95%
    02:00 +6°C° 0.1 mm 2 mps 732 mmHg 96%
    03:00 +6°C° 0.4 mm 2 mps 732 mmHg 96%
    04:00 +6°C° 0.4 mm 2 mps 732 mmHg 96%
    05:00 +7°C° 0.4 mm 2 mps 732 mmHg 97%
    06:00 +7°C° 0.3 mm 2 mps 732 mmHg 95%
    07:00 +7°C° 0.3 mm 2 mps 732 mmHg 93%
    08:00 +8°C° 0.3 mm 2 mps 732 mmHg 91%
    09:00 +8°C° 0.3 mm 2 mps 733 mmHg 87%
    10:00 +10°C° 0.3 mm 1 mps 733 mmHg 83%
    11:00 +11°C° 0.3 mm 1 mps 733 mmHg 78%
    12:00 +11°C° 0.3 mm 1 mps 733 mmHg 76%
    13:00 +12°C° 0.3 mm 2 mps 733 mmHg 74%
    14:00 +12°C° 0.3 mm 2 mps 733 mmHg 72%
    15:00 +10°C° 0.4 mm 2 mps 733 mmHg 77%
    16:00 +9°C° 0.4 mm 2 mps 733 mmHg 81%
    17:00 +9°C° 0.4 mm 2 mps 733 mmHg 86%
    18:00 +8°C° 0 mm 2 mps 733 mmHg 88%
    19:00 +7°C° 0 mm 2 mps 734 mmHg 91%
    20:00 +6°C° 0 mm 2 mps 734 mmHg 94%
    21:00 +4°C° 0 mm 3 mps 734 mmHg 95%
    22:00 +4°C° 0 mm 3 mps 735 mmHg 96%
    23:00 +3°C° 0 mm 3 mps 735 mmHg 96%

    Day after tomorrow, 19 September, Thursday

    Time Temperature Precipitation Wind Pressure Humidity
    00:00 +4°C° 0 mm 3 mps 736 mmHg 96%
    01:00 +4°C° 0 mm 3 mps 736 mmHg 96%
    02:00 +4°C° 0 mm 4 mps 736 mmHg 95%
    03:00 +4°C° 0.4 mm 4 mps 737 mmHg 95%
    04:00 +4°C° 0.4 mm 4 mps 737 mmHg 94%
    05:00 +4°C° 0.4 mm 4 mps 738 mmHg 93%
    06:00 +4°C° 0.3 mm 4 mps 739 mmHg 92%
    07:00 +4°C° 0.3 mm 4 mps 739 mmHg 90%
    08:00 +4°C° 0.3 mm 4 mps 740 mmHg 88%
    09:00 +4°C° 0 mm 3 mps 740 mmHg 83%
    10:00 +5°C° 0 mm 3 mps 741 mmHg 78%
    11:00 +7°C° 0 mm 3 mps 741 mmHg 73%
    12:00 +7°C° 0 mm 3 mps 742 mmHg 71%
    13:00 +7°C° 0 mm 3 mps 742 mmHg 70%
    14:00 +5°C° 0 mm 3 mps 743 mmHg 68%
    15:00 +6°C° 0 mm 2 mps 743 mmHg 70%
    16:00 +6°C° 0 mm 2 mps 743 mmHg 72%
    17:00 +7°C° 0 mm 1 mps 743 mmHg 73%
    18:00 +6°C° 0 mm 1 mps 744 mmHg 76%
    19:00 +4°C° 0 mm 1 mps 744 mmHg 79%
    20:00 +3°C° 0 mm 1 mps 744 mmHg 82%
    21:00 +3°C° 0 mm 1 mps 744 mmHg 83%
    22:00 +3°C° 0 mm 1 mps 744 mmHg 85%
    23:00 +2°C° 0 mm 1 mps 745 mmHg 86%

    20 September, Friday

    Time Temperature Precipitation Wind Pressure Humidity
    00:00 +2°C° 0 mm 1 mps 745 mmHg 86%
    01:00 +2°C° 0 mm 1 mps 745 mmHg 86%
    02:00 +2°C° 0 mm 1 mps 745 mmHg 86%
    03:00 +2°C° 0 mm 1 mps 745 mmHg 87%
    04:00 +2°C° 0 mm 1 mps 745 mmHg 87%
    05:00 +3°C° 0 mm 1 mps 745 mmHg 88%
    06:00 +4°C° 0 mm 1 mps 745 mmHg 84%
    07:00 +3°C° 0 mm 2 mps 745 mmHg 80%
    08:00 +4°C° 0 mm 2 mps 745 mmHg 77%
    09:00 +5°C° 0 mm 2 mps 746 mmHg 71%
    10:00 +6°C° 0 mm 2 mps 746 mmHg 65%
    11:00 +7°C° 0 mm 2 mps 746 mmHg 59%
    12:00 +7°C° 0 mm 3 mps 746 mmHg 58%
    13:00 +8°C° 0 mm 3 mps 746 mmHg 56%
    14:00 +8°C° 0 mm 3 mps 747 mmHg 54%
    15:00 +7°C° 0 mm 3 mps 747 mmHg 58%
    16:00 +6°C° 0 mm 2 mps 747 mmHg 63%
    17:00 +6°C° 0 mm 2 mps 747 mmHg 67%
    18:00 +4°C° 0 mm 2 mps 747 mmHg 70%
    19:00 +3°C° 0 mm 2 mps 747 mmHg 73%
    20:00 +2°C° 0 mm 2 mps 748 mmHg 76%
    21:00 +2°C° 0 mm 2 mps 748 mmHg 77%
    22:00 +1°C° 0 mm 2 mps 748 mmHg 78%
    23:00 -1°C° 0 mm 2 mps 748 mmHg 80%

    21 September, Saturday

    Time Temperature Precipitation Wind Pressure Humidity
    00:00 -1°C° 0 mm 2 mps 748 mmHg 82%
    01:00 -1°C° 0 mm 2 mps 749 mmHg 85%
    02:00 -1°C° 0 mm 2 mps 749 mmHg 87%
    03:00 -1°C° 0 mm 2 mps 749 mmHg 90%
    04:00 -2°C° 0 mm 2 mps 749 mmHg 93%
    05:00 -2°C° 0 mm 2 mps 749 mmHg 96%
    06:00 -1°C° 0 mm 2 mps 749 mmHg 91%
    07:00 +1°C° 0 mm 3 mps 749 mmHg 86%
    08:00 +2°C° 0 mm 3 mps 750 mmHg 80%
    09:00 +3°C° 0 mm 3 mps 750 mmHg 73%
    10:00 +4°C° 0 mm 3 mps 750 mmHg 65%
    11:00 +7°C° 0 mm 3 mps 750 mmHg 58%
    12:00 +7°C° 0 mm 3 mps 749 mmHg 56%
    13:00 +8°C° 0 mm 3 mps 749 mmHg 54%
    14:00 +8°C° 0 mm 3 mps 749 mmHg 53%
    15:00 +7°C° 0 mm 2 mps 749 mmHg 59%
    16:00 +6°C° 0 mm 2 mps 749 mmHg 66%
    17:00 +6°C° 0 mm 1 mps 749 mmHg 72%
    18:00 +5°C° 0 mm 1 mps 749 mmHg 76%
    19:00 +4°C° 0 mm 1 mps 749 mmHg 80%
    20:00 +4°C° 0 mm 1 mps 749 mmHg 83%
    21:00 +3°C° 0 mm 1 mps 749 mmHg 86%
    22:00 +3°C° 0 mm 1 mps 749 mmHg 88%
    23:00 +2°C° 0 mm 1 mps 749 mmHg 91%

    22 September, Sunday

    Time Temperature Precipitation Wind Pressure Humidity
    00:00 +2°C° 0 mm 1 mps 749 mmHg 91%
    01:00 +1°C° 0 mm 1 mps 749 mmHg 91%
    02:00 +1°C° 0 mm 1 mps 749 mmHg 91%
    03:00 +1°C° 0 mm 1 mps 749 mmHg 91%
    04:00 +1°C° 0 mm 1 mps 749 mmHg 91%
    05:00 +1°C° 0 mm 1 mps 749 mmHg 91%
    06:00 +1°C° 0 mm 2 mps 749 mmHg 86%
    07:00 +2°C° 0 mm 2 mps 750 mmHg 82%
    08:00 +4°C° 0 mm 2 mps 750 mmHg 77%
    09:00 +5°C° 0 mm 2 mps 750 mmHg 74%
    10:00 +5°C° 0 mm 3 mps 750 mmHg 71%
    11:00 +8°C° 0 mm 3 mps 750 mmHg 67%
    12:00 +8°C° 0 mm 3 mps 750 mmHg 69%
    13:00 +9°C° 0 mm 3 mps 749 mmHg 70%
    14:00 +8°C° 0 mm 4 mps 749 mmHg 72%
    15:00 +8°C° 0 mm 4 mps 749 mmHg 77%
    16:00 +7°C° 0 mm 4 mps 749 mmHg 81%
    17:00 +7°C° 0 mm 4 mps 749 mmHg 86%
    18:00 +7°C° 0 mm 4 mps 749 mmHg 87%
    19:00 +7°C° 0 mm 4 mps 749 mmHg 89%
    20:00 +7°C° 0 mm 4 mps 748 mmHg 91%
    21:00 +7°C° 0 mm 4 mps 748 mmHg 92%
    22:00 +8°C° 0 mm 4 mps 748 mmHg 93%
    23:00 +8°C° 0 mm 4 mps 748 mmHg 93%
    Show more